[Iaude] MPEC K32: 2024 KB [a=1.94,e=0.68,i=43.9,H=22.9]

mpec at cfa.harvard.edu mpec at cfa.harvard.edu
Mon May 20 01:47:39 EDT 2024


M.P.E.C. 2024-K32                                  Issued 2024 May 20, 05:46 UT

     The Minor Planet Electronic Circulars contain information on unusual
         minor planets, routine data on comets and natural satellites,
         and occasional editorial announcements.  They are published
    on behalf of Division F of the International Astronomical Union by the
          Minor Planet Center, Smithsonian Astrophysical Observatory,
                          Cambridge, MA 02138, U.S.A.
			  
             Prepared using the Tamkin Foundation Computer Network

                              MPC at CFA.HARVARD.EDU
            URL https://www.minorplanetcenter.net/    ISSN 1523-6714

                                    2024 KB                                     


Observations:
     K24K00B*1C2024 05 17.40668016 52 47.890+06 04 44.60               VEK032G96
     K24K00B 1C2024 05 17.41184716 52 44.540+06 05 31.60               VEK032G96
     K24K00B 1C2024 05 17.41701516 52 41.030+06 06 20.60         20.14GVEK032G96
     K24K00B 1C2024 05 17.42218916 52 37.530+06 07 09.10         19.80GVEK032G96
     K24K00B mC2024 05 17.45257816 52 17.058+06 11 51.97               VEK032I52
     K24K00B mC2024 05 17.45291016 52 16.853+06 11 54.71               VEK032I52
     K24K00B mC2024 05 17.45357416 52 16.392+06 12 00.97         20.51GVEK032I52
     K24K00B 1C2024 05 18.43258616 42 24.026+08 30 47.27         20.17GVEK032G96
     K24K00B 1C2024 05 18.43339116 42 23.551+08 30 53.57         20.40GVEK032G96
     K24K00B 1C2024 05 18.43419416 42 23.083+08 31 00.01         20.33GVEK032G96
     K24K00B 1C2024 05 18.43499616 42 22.633+08 31 06.13         20.60GVEK032G96
     K24K00B 1C2024 05 18.43579816 42 22.162+08 31 12.14         20.66GVEK032G96
     K24K00B KB2024 05 18.84352 16 38 43.74 +09 21 59.7          19.6 RZEK032106
     K24K00B KB2024 05 18.84997 16 38 40.35 +09 22 45.7          19.8 RZEK032106
     K24K00B KB2024 05 18.85630 16 38 36.87 +09 23 31.8          19.4 RZEK032106
     K24K00B KB2024 05 18.87040216 38 29.78 +09 25 15.1          19.4 GXEK032958
     K24K00B KB2024 05 18.87434016 38 27.64 +09 25 43.1          19.7 GXEK032958
     K24K00B KB2024 05 18.87822416 38 25.64 +09 26 11.7          19.3 GXEK032958
     K24K00B  C2024 05 19.20902916 35 35.598+10 04 50.54         20.7 GVEK032H01
     K24K00B  C2024 05 19.21480916 35 32.633+10 05 30.16         20.7 GVEK032H01
     K24K00B  C2024 05 19.23158316 35 24.007+10 07 24.30         20.5 GVEK032H01
     K24K00B KC2024 05 19.23229616 35 22.75 +10 07 25.9          20.6 GVEK032H21
     K24K00B  C2024 05 19.23568916 35 21.907+10 07 51.87         20.5 GVEK032H01
     K24K00B KC2024 05 19.23691016 35 20.37 +10 07 57.4                VEK032H21
     K24K00B KC2024 05 19.24086316 35 18.34 +10 08 24.2          20.4 GVEK032H21
     K24K00B KC2024 05 19.24213616 35 18.794+10 08 36.28         20.24GVEK032I52
     K24K00B KC2024 05 19.24283916 35 17.32 +10 08 37.4          20.4 GVEK032H21
     K24K00B KC2024 05 19.24371816 35 17.966+10 08 47.26         21.03GVEK032I52
     K24K00B KC2024 05 19.24450616 35 17.588+10 08 53.16         20.20GVEK032I52
     K24K00B KC2024 05 19.25561 16 35 11.16 +10 10 03.4          20.3 RqEK032734
     K24K00B KC2024 05 19.27917 16 34 59.00 +10 12 43.5          20.6 RqEK032734
     K24K00B KC2024 05 20.22181216 27 42.600+11 49 58.80         20.34GVEK032I52
     K24K00B KC2024 05 20.22673316 27 40.430+11 50 28.60         21.20GVEK032I52
     K24K00B KC2024 05 20.22870816 27 39.560+11 50 39.80         21.09GVEK032I52
     K24K00B KC2024 05 20.23068116 27 38.640+11 50 50.60               VEK032I52

Observer details:
106 Crni Vrh.  Observer H. Mikuz.  0.60-m f/3.3 reflector + CMO.
734 Farpoint Observatory, Eskridge.  Observers G. Hug, D. Cromer, D. Goodin,
    R. Valentine.  Measurer G. Hug.  0.7m reflector + CCD.
958 Observatoire de Dax.  Observer P. Dupouy.  0.50-m f/4.5 Reflector + CMO.
G96 Mt. Lemmon Survey.  Observer V. F. Carvajal.  Measurers T. Beuden, V. F.
    Carvajal, D. Fay, J. B. Fazekas, D. C. Fuls, A. R. Gibbs, A. D. Grauer, H.
    Groeller, J. K. Hogan, R. A. Kowalski, S. M. Larson, G. J. Leonard, D.
    Rankin, R. L. Seaman, F. C. Shelly, K. W. Wierzchos.  1.5-m reflector +
    10K CCD.
H01 Magdalena Ridge Observatory, Socorro.  Observers W. H. Ryan, E. V. Ryan.
    Measurer W. H. Ryan.  2.4-m f/8.9 Ritchey-Chretien + CCD.
H21 Astronomical Research Observatory, Westfield.  Observer R. Holmes.
    Measurers T. Linder, R. Holmes, L. Horn.  0.81-m f/4.0 astrograph + CCD.
I52 Steward Observatory, Mt. Lemmon Station.  Observers J. K. Hogan, V. F.
    Carvajal.  Measurers T. Beuden, V. F. Carvajal, D. Fay, J. B. Fazekas, D.
    C. Fuls, A. R. Gibbs, A. D. Grauer, H. Groeller, J. K. Hogan, R. A.
    Kowalski, S. M. Larson, G. J. Leonard, D. Rankin, R. L. Seaman, F. C.
    Shelly, K. W. Wierzchos.  1.0-m prime focus + CCD.

Orbital elements:
2024 KB                                                  Earth MOID = 0.0069 AU
Epoch 2024 Mar. 31.0 TT = JDT 2460400.5                 MPC                     
M   4.43934              (2000.0)            P               Q                  
n   0.36404857     Peri.  267.08078     -0.55646415     -0.60928444             
a   1.9425095      Node   234.53861     +0.69653994     -0.71274679             
e   0.6845288      Incl.   43.91238     -0.45296772     -0.34751186             
P   2.71           H   22.90          G   0.15           U   9                  
Residuals in seconds of arc
240517 G96  1.8-  0.5+    240518 106  0.1+  0.5+    240519 H21  0.0   0.3+
240517 G96  0.4+  0.8-    240518 106  1.2+  0.3-    240519 I52  0.3+  0.5-
240517 G96  0.2+  0.1-    240518 106  0.1+  0.1-    240519 H21  0.1-  0.2+
240517 G96  0.1+  0.2+    240518 958  0.3+  0.8+    240519 I52  0.0   0.2-
240517 I52  0.6-  0.8+    240518 958  0.2-  0.3+    240519 I52  0.4+  0.4+
240517 I52  0.4-  0.4+    240518 958  0.9+  0.8+    240519 734  0.5+  0.2-
240517 I52  0.6-  0.6+    240519 H01  0.3-  0.2-    240519 734 (0.5-  1.3+)
240518 G96  0.0   0.1-    240519 H01  0.2-  0.0     240520 I52  0.5-  0.9-
240518 G96  0.1-  0.0     240519 H01  0.3-  0.1+    240520 I52  0.0   0.6+
240518 G96  0.2-  0.2+    240519 H21  0.1-  0.0     240520 I52  0.2+  0.5+
240518 G96  0.0   0.1+    240519 H01  0.1-  0.2-    240520 I52  0.4-  0.0
240518 G96  0.1-  0.1-    240519 H21  0.1-  0.2+

Ephemeris:
2024 KB                  a,e,i = 1.94, 0.68, 44                  q = 0.6128
Date    TT    R. A. (2000) Decl.     Delta      r    Elong.  Phase     V
2024 04 20    01 45 43.3 -38 03 30   0.3296  0.8297    49.6   112.8    24.4
...
2024 05 05    22 45 24.1 -44 53 03   0.1228  0.9995    82.3    90.7    21.6
...
2024 05 13    18 04 14.8 -11 12 46   0.1044  1.0922   139.7    36.7    19.7
...
2024 05 19    16 37 20.4 +09 41 03   0.1725  1.1612   147.7    27.7    20.6
2024 05 20    16 29 19.2 +11 28 44   0.1865  1.1726   146.9    28.1    20.8
2024 05 21    16 22 20.2 +12 59 35   0.2009  1.1840   146.0    28.6    21.0
...
2024 05 27    15 54 33.9 +18 24 22   0.2930  1.2518   140.0    31.4    22.1
...
2024 06 04    15 36 40.6 +21 01 59   0.4236  1.3403   133.1    33.5    23.1
...
2024 06 19    15 25 26.6 +21 26 14   0.6815  1.4996   122.9    34.7    24.4

A. U. Tomatic                (C) Copyright 2024 MPC           M.P.E.C. 2024-K32





More information about the Iaude mailing list